Location: Newark
(27.9675°N, 86.8869°E)
Time: 19:55:49
(UTC+00:00)

A-11 Canister half - Pass Details

Date: 28 October 2019
Orbit: 1527 x 1682 km, 47.3° (Epoch: 16 November)

Event Time Altitude Azimuth Distance (km) Brightness Sun altitude
Rises 14:34:52 0° 294° (WNW) 4,737 12.4 -41.0°
Reaches altitude 10° 14:38:58 10° 309° (NW) 3,731 11.5 -41.9°
Enters shadow 14:45:35 22° 355° (N) 2,847 10.4 -43.3°
